Вернуться в каталог

SL-12 R/B(2)

LostMEO
NORAD 20623·ROCKET BODY·🇷🇺 Russia

Запущен May 19, 1990 с Baikonur Cosmodrome

Loading…

Ближайшие Пролёты (ближайшие 24 часа)

TLE

УстаревшееSource: Space-Track

Эпоха: Aug 1, 2026, 09:11 UTC

1 20623U 90045E   26213.38310403 -.00000031  00000-0  00000+0 0  9991
2 20623  64.6532 305.4574 0013666 341.6785  22.7943  2.13419204282303

Отслеживайте SL-12 R/B(2) в реальном времени с AllMySat

Download on the App Store